Flag for Germany Weather past 2 weeks in Gaggenau, Baden-Württemberg, Germany

Now
50 °F

Clear.


Feels Like: 47 °F
Forecast: 39 / 63 °F
Wind: 7 mph from Northeast

Location: Karlsruhe - Baden Wurttemberg

Current Time: Sep 23, 2014 at 10:43:26 PM

Latest Report: Sep 23, 2014 at 10:20 PM


Visibility: 10 mi

Pressure: 30.07 "Hg

Humidity: 76%

Dew point: 43 °F

Location of GaggenauLocation

Historic Weather in Gaggenau — Graph

°F

Gaggenau temperature yesterday

Maximum temperature yesterday: 59 °F (at 1:50 PM)
Minimum temperature yesterday: 45 °F (at 11:20 PM)
Average temperature yesterday: 52 °F

Past Weeks' High & Low Weather Summary

 TemperatureHumidityPressure
High79 °F (Sep 19, 2:50 PM)100% (Sep 23, 5:20 AM)30.21 "Hg (Sep 23, 5:20 AM)
Low41 °F (Sep 23, 7:20 AM)46% (Sep 10, 3:50 PM)29.83 "Hg (Sep 17, 4:20 PM)
Average62 °F78%30.02 "Hg
* Reported Sep 8 9:20 PM — Sep 23 9:50 PM, Gaggenau, Weather by CustomWeather, © 2014

Note: Actual official high and low records may vary slightly from our data, if they occured in-between our weather recording intervals... More about our weather records

Advertising

Gaggenau weather history for previous 24 hours

 ConditionsComfort  
Time TempWeatherWind HumidityBarometerVisibility
9:50 PM
Sep 23
52 °FClear.9 mph77%30.07 "Hg10 mi
9:20 PM50 °FClear.9 mph76%30.07 "Hg10 mi
8:50 PM50 °FClear.8 mph76%30.07 "Hg10 mi
8:20 PM52 °FSunny.9 mph72%30.07 "Hg10 mi
7:50 PM54 °FSunny.10 mph67%30.07 "Hg10 mi
7:20 PM55 °FSunny.9 mph63%30.07 "Hg10 mi
6:50 PM57 °FSunny.12 mph59%30.07 "Hg10 mi
6:20 PM59 °FSunny.14 mph55%30.04 "Hg10 mi
5:50 PM61 °FPassing clouds.13 mph55%30.07 "HgN/A
5:20 PM61 °FSunny.13 mph55%30.07 "Hg10 mi
4:50 PM61 °FSunny.14 mph55%30.07 "Hg10 mi
4:20 PM61 °FSunny.13 mph55%30.07 "Hg10 mi
3:50 PM61 °FPassing clouds.12 mph52%30.09 "HgN/A
3:20 PM61 °FSunny.12 mph55%30.09 "Hg10 mi
2:50 PM61 °FPassing clouds.10 mph55%30.12 "HgN/A
2:20 PM61 °FPassing clouds.10 mph55%30.12 "HgN/A
1:50 PM61 °FPassing clouds.9 mph55%30.12 "HgN/A
1:20 PM59 °FPassing clouds.9 mph63%30.15 "HgN/A
12:50 PM57 °FPassing clouds.8 mph72%30.15 "HgN/A
12:20 PM55 °FScattered clouds.6 mph77%30.18 "HgN/A
11:50 AM54 °FScattered clouds.6 mph82%30.18 "Hg6 mi
11:20 AM52 °FScattered clouds.3 mph88%30.21 "Hg6 mi
10:50 AM52 °FScattered clouds.3 mph88%30.21 "Hg6 mi
10:20 AM50 °FScattered clouds.2 mph94%30.21 "Hg5 mi
9:50 AM46 °FFog.2 mph100%30.21 "Hg1 mi
9:20 AM46 °FFog.1 mph93%30.21 "Hg0 mi
8:50 AM45 °FFog.1 mph93%30.21 "Hg0 mi
8:20 AM43 °FFog.1 mph93%30.21 "Hg1 mi
7:50 AM41 °FFog.3 mph93%30.21 "Hg3 mi
7:20 AM41 °FFog.2 mph100%30.18 "Hg6 mi
6:50 AM43 °FTornado. Clear.2 mph93%30.18 "Hg6 mi
6:20 AM43 °FClear.No wind93%30.18 "Hg5 mi
5:50 AM43 °FPassing clouds.6 mph93%30.18 "Hg4 mi
5:20 AM43 °FFog.5 mph100%30.18 "Hg3 mi
4:50 AM43 °FFog.5 mph93%30.18 "Hg3 mi
11:20 PM
Sep 22
45 °FFog.3 mph93%30.21 "HgN/A
10:50 PM46 °FFog.5 mph93%30.18 "Hg6 mi
10:20 PM46 °FClear.5 mph93%30.18 "Hg10 mi
Weather by CustomWeather, © 2014

See weather overviewHow to use our weather pages